STARLINK-1722, 46361

Orbit data source: Space-Track

STARLINK-1722, 46361 is a payload satellite owned by SpaceX/Seattle (US) in LEO that was launched on Thu, 03 Sep 2020 UTC via an FALCON 9 launch vehicle from the Air Force Eastern Test Range (AFETR). Payloads include a variety of satellites, spacecraft, and rockets equipped with specific instruments for various scientific and technological missions. These include communications satellites like Starlink; space stations such as the ISS; scientific satellites like the Hubble; Earth observation satellites from companies like Planet Labs, Umbra, and HawkEye 360; GPS; miniature CubeSats for education and research; and military/defense satellites.

Loading next visibility...
STARLINK-1722 details
Identifier
46361, 2020-062AN
Orbit
LEO
Last TLE update20 hours ago
Origin
Flag of USSpaceX/Seattle (US)
ManufacturerSpaceX/Seattle
MissionPartially operational Commercial Communications
Bus & MotorSTARLINK, Unknown motor
Mass260 kg wet, ~248 kg dry
Launch date (UTC)
2020-09-03 (4 years ago)
Launch vehicle
FALCON 9
Launch site
Air Force Eastern Test Range (AFETR)
Object type
Payload
Rocket body
Debris
Shape & HBRBox + 1 Pan, 8.86 m
Radar Cross Section13.562 m², Large (>1 m²)

Expand to show TLE details & history

TLE from 20 hours ago
0 STARLINK-1722
1 46361U 20062AN  24360.58335648  .00223738  00000-0  24348-2 0  9995
2 46361  53.0476 132.1408 0005382 334.3010  73.6239 15.62186104  5861
Epoch: 2024-12-25T14:00Z
Definitive object data (Epoch: 2024-12-25T14:00:01.999Z)
Latitude36.54197°
Longitude-138.77518°
Altitude383.183 km
Speed7.685 km/s
True Right ascension11h 03m 13s
True Declination36° 22' 07"
Sunlit
Object was in full shadow at TLE epoch
Visualization TLE readout
Latitude45.41995°
Longitude-127.13799°
Altitude384.806 km
Speed7.685 km/s
Apparent Right ascension16h 46m 21s
Apparent Declination13° 19' 46"
Sunlit
Object is in full shadow
Visualization observer readout
Local Sidereal Time09:22:24
Azimuth66.213° ENE
Elevation-6.856°
Doppler factor1
Orbital elements
Apogee altitude385.26 km
Perigee altitude377.984 km
Semi-major axis6,759.759 km
Eccentricity0.0005382
Inclination53.0476°
RAAN132.1408°
Arg. of periapsis334.301°
True anomaly73.68308°
Mean anomaly73.6239°
Eccentric anomaly73.65349°
Mean motion3.90523 °/min
BSTAR0.0024348
Orbital period92.18 mins
Loading maneuver chart data...
Loading historical data...
Loading historical data...
Loading historical data...
Loading historical data...
Loading historical data...
Loading historical data...
Loading historical data...

STARLINK-1722 Visibility forecast

Observer location: undefined°, undefined

Span
Click to sort rows by Start time (UTC) header in descending order
Start Az.
Max El. time (UTC)
Max El. Az.
Max El.
End time (UTC)
End Az.
5 mins2024-12-26 11:28:17.810Z214.451° SW2024-12-26 11:30:17.810Z154.799° SSE40.649°2024-12-26 11:33:17.810Z57.213° ENE
5 mins2024-12-26 17:54:17.810Z323.649° NNW2024-12-26 17:57:17.810Z55.919° ENE32.731°2024-12-26 17:59:17.810Z104.05° ESE
|